Vorticity
6 6 9 9 12 11 11 8 10 9 14 6 16 7 -1 7 8 -5 9 22 18 28
7 6 8 12 10 8 9 13 11 15 5 11 10 4 11 1 4 25 42 42 34 24
6 7 10 7 11 12 15 7 2 13 9 10 1 6 20 41 43 38 30 29 30 29
5 9 13 14 12 12 12 9 8 3 -1 15 32 31 35 38 26 16 8 10 9 3
10 14 16 14 7 9 8 -2 3 22 38 39 26 40 23 15 20 5 8 11 3 10
12 15 8 11 17 3 5 17 38 31 29 39 22 13 10 10 9 8 8 8 11 13
13 11 11 14 12 14 30 34 24 28 17 10 10 12 13 13 13 14 15 16 16 17
9 10 12 16 27 39 25 28 16 9 10 15 15 14 12 12 13 12 10 8 8 8
14 13 21 28 33 21 24 8 9 17 12 9 8 10 9 9 10 10 11 11 9 8
18 22 34 23 25 21 6 13 11 9 9 10 11 13 13 13 13 13 13 12 11 10
27 29 27 24 14 9 13 9 9 9 10 14 16 17 16 17 18 20 21 22 22 21
25 19 23 9 12 11 9 9 8 13 18 19 19 18 18 19 20 22 22 22 21 22
10 25 13 12 9 8 10 8 13 16 17 18 18 16 14 16 20 23 22 21 23 22
20 14 13 10 7 10 8 11 16 19 18 18 14 9 18 18 18 20 23 19 22 29
Height
5674 5666 5658 5649 5640 5632 5623 5614 5605 5596 5588 5580 5572 5563 5556 5550 5543 5536 5529 5523 5517 5512
5659 5649 5639 5629 5619 5610 5600 5590 5581 5573 5564 5556 5548 5539 5530 5521 5514 5506 5498 5492 5487 5484
5638 5628 5618 5608 5599 5589 5579 5570 5560 5550 5541 5530 5520 5510 5500 5492 5482 5475 5471 5468 5466 5464
5621 5610 5600 5588 5578 5568 5557 5547 5537 5525 5514 5503 5492 5482 5473 5466 5461 5458 5455 5452 5451 5450
5603 5591 5579 5567 5556 5545 5533 5522 5512 5498 5487 5477 5468 5461 5455 5450 5447 5444 5441 5438 5436 5434
5582 5570 5558 5546 5535 5522 5510 5496 5484 5474 5466 5458 5452 5447 5442 5437 5433 5429 5426 5423 5420 5419
5562 5550 5538 5524 5512 5499 5486 5474 5464 5456 5449 5443 5438 5433 5428 5422 5418 5414 5411 5407 5404 5402
5543 5530 5516 5501 5487 5474 5465 5456 5449 5443 5436 5429 5423 5418 5414 5409 5404 5400 5396 5392 5389 5388
5522 5508 5493 5479 5468 5458 5450 5443 5436 5429 5422 5415 5409 5404 5398 5393 5388 5384 5380 5377 5375 5373
5502 5488 5475 5463 5454 5445 5439 5431 5424 5416 5409 5401 5393 5387 5381 5375 5370 5366 5362 5359 5357 5356
5484 5471 5461 5451 5443 5435 5428 5420 5411 5403 5394 5385 5375 5369 5362 5357 5352 5348 5344 5340 5338 5338
5469 5458 5448 5440 5433 5424 5416 5407 5398 5388 5378 5369 5361 5353 5347 5342 5337 5332 5328 5324 5321 5319
5456 5446 5438 5430 5422 5413 5404 5395 5385 5374 5364 5355 5347 5339 5333 5328 5322 5319 5315 5311 5307 5306
5445 5436 5428 5420 5411 5403 5393 5383 5371 5361 5352 5343 5335 5328 5320 5314 5309 5305 5302 5298 5297 5297